Tracking 35274 objects as of 12-Sep-2026
HD Live streaming from Space Station
objects crossing your sky now

NOAA 16 DEB

Track NOAA 16 DEB now!
10-day predictions


NORAD ID: 41211
Int'l Code: 2000-055DQ
Launch date: September 21, 2000
Source: United States (US)
Launch site: AIR FORCE WESTERN TEST RANGE (AFWTR)

Note: This is SATELLITE DEBRIS
Your satellite tracking list
Your tracking list is empty




NASA's NSSDC Master Catalog

Two Line Element Set (TLE):
1 41211U 00055DQ  26252.93005764  .00001562  00000-0  72883-3 0  9995
2 41211  98.6717 301.3379 0024823 222.4093 137.5166 14.21676772554350
Source of the keplerian elements: AFSPC